SCP
1 1 1 1 1 1 1 1 1 1 1 1 1 1 1 1 1 1 1 1 1 1 1 1 1 1 1 1 1 1 1 1 1 2 2 1 1 1 1 1 1 0 0
1 1 1 1 1 1 1 1 1 1 1 1 1 1 1 1 1 1 1 1 1 1 1 1 1 1 1 1 1 1 1 1 1 1 1 1 1 1 1 1 1 0 1
1 1 1 1 1 1 1 1 1 1 1 1 1 1 1 1 1 1 1 1 1 1 1 1 1 1 1 1 1 1 1 1 1 1 1 1 1 1 1 1 1 1 1
1 1 1 1 1 1 1 1 1 1 1 1 1 1 1 1 1 1 1 1 1 1 1 1 1 1 1 1 1 1 1 1 1 1 1 1 1 1 1 1 1 1 1
1 1 1 1 1 1 1 1 1 1 1 1 1 1 1 1 1 1 1 1 1 1 1 1 1 1 1 1 2 2 2 1 1 1 0 0 0 1 1 1 1 1 1
1 1 1 2 2 1 1 1 1 1 1 1 1 1 1 1 1 1 1 1 1 1 1 1 1 1 1 1 2 2 2 1 1 1 0 0 0 1 1 1 1 1 1
1 1 1 2 2 1 1 1 1 1 1 0 1 1 1 1 1 1 1 1 1 1 1 1 1 1 1 1 1 1 1 1 1 1 0 0 0 1 1 1 1 1 1
1 1 1 2 2 1 1 1 1 1 1 0 1 1 1 1 1 1 1 1 1 2 1 1 1 1 1 1 1 1 1 1 1 1 0 0 1 1 1 1 1 1 1
1 1 1 1 1 1 1 1 1 1 1 1 1 1 1 1 0 1 1 1 2 2 1 1 0 0 1 1 0 0 1 1 1 1 0 0 1 1 1 1 1 1 1
1 1 1 1 1 1 1 1 1 1 1 0 0 0 0 0 0 1 1 1 2 2 1 1 0 0 0 0 0 0 0 0 1 1 0 0 1 1 1 1 1 1 1
1 1 1 1 1 1 1 1 1 1 1 0 0 0 0 0 0 1 1 1 2 1 1 1 0 0 0 0 0 0 0 0 0 0 0 0 1 1 1 1 1 1 1
1 1 1 1 1 1 1 1 1 1 1 1 1 0 0 0 1 1 1 1 1 1 1 0 0 0 0 0 1 1 1 1 1 0 0 0 1 1 1 1 1 1 1
1 1 1 1 1 1 1 1 1 1 1 1 1 1 1 1 1 1 1 1 1 0 0 0 0 0 0 0 1 1 1 1 1 1 0 0 1 1 1 1 1 1 1
0 1 1 1 2 2 2 2 1 1 1 2 2 1 1 1 2 2 1 1 1 0 0 0 0 0 0 0 1 1 1 1 1 0 0 0 1 1 1 1 1 1 1
1 1 1 1 2 2 2 2 1 1 1 1 2 2 2 2 2 2 2 1 1 0 0 0 0 0 0 0 0 1 1 1 1 0 0 0 0 1 1 1 1 1 1
1 1 1 1 2 2 2 2 1 1 1 1 1 1 1 2 3 2 1 1 1 0 0 0 0 0 0 0 0 0 0 0 0 0 0 0 0 0 0 1 1 1 1
1 1 1 2 2 2 2 2 1 1 1 1 1 1 1 2 2 2 1 1 1 1 1 0 0 0 0 0 0 0 0 0 0 0 0 0 0 0 0 0 1 1 0
1 1 1 1 1 1 1 1 1 1 1 1 1 1 1 1 1 1 1 1 1 1 1 1 0 0 0 0 0 0 0 0 0 0 0 0 0 0 0 0 0 0 0
1 1 1 1 1 1 1 1 1 1 2 2 1 1 1 1 1 1 1 1 1 1 1 1 0 0 0 0 0 0 0 0 0 0 0 0 0 0 0 0 0 0 0
1 1 2 2 1 1 1 1 1 1 2 2 2 1 1 0 0 0 1 1 1 1 1 1 1 0 0 0 0 0 0 0 0 0 0 0 0 0 0 0 0 0 0
1 1 1 2 2 1 1 1 1 1 2 2 2 1 1 0 0 0 0 1 1 1 1 1 1 0 0 0 0 0 0 0 0 0 0 0 0 0 0 0 0 0 0
0 0 1 1 1 2 2 2 2 2 2 2 2 2 1 0 0 0 0 0 1 1 1 1 1 1 0 0 0 0 0 0 0 0 0 0 0 0 0 0 0 0 0
0 0 0 0 1 1 2 2 2 2 3 3 3 2 1 1 0 0 0 0 1 1 1 1 1 1 0 0 0 0 0 0 0 0 0 0 0 0 0 0 0 0 0
0 0 0 0 0 1 1 2 2 2 3 3 3 3 2 1 0 0 0 0 0 1 1 1 1 1 1 0 0 0 0 0 0 0 0 0 0 0 0 0 0 0 0
0 0 0 0 0 0 1 1 2 2 2 3 3 3 2 1 0 0 0 0 1 0 0 1 1 1 1 0 0 0 0 0 0 0 0 0 0 0 0 0 0 0 0
0 0 0 0 0 0 0 1 1 1 2 2 3 3 2 1 0 0 0 1 1 1 0 0 1 1 1 0 0 0 0 0 0 0 0 0 0 0 0 0 0 0 0
Wind_Speed
5 7 5 5 6 7 7 7 7 7 7 7 7 7 7 7 7 8 8 8 8 9 9 10 10 11 11 12 12 12 12 12 12 12 12 12 12 12 12 11 10 8 12
5 7 6 6 7 7 7 7 6 6 6 6 6 6 7 7 7 7 8 7 7 8 9 9 10 11 11 12 12 12 11 10 10 9 10 10 10 12 12 12 11 8 11
6 7 6 5 6 6 6 6 6 6 5 6 5 5 6 5 6 6 7 7 7 7 8 9 9 10 11 11 11 10 9 8 8 7 7 5 7 11 12 12 11 11 11
6 6 6 5 6 6 6 5 5 5 5 5 5 5 5 5 5 6 6 6 7 7 8 9 10 10 10 10 10 9 8 7 6 6 4 5 5 11 12 12 11 11 11
5 5 6 5 6 6 5 5 5 4 4 5 5 5 5 5 5 6 6 6 7 7 8 9 9 9 10 10 9 8 7 7 6 5 5 5 5 9 11 11 12 12 11
5 5 6 5 5 6 5 5 4 4 4 4 4 4 5 5 5 5 6 6 7 7 8 9 9 9 9 9 8 8 7 7 5 4 5 5 4 8 10 10 11 11 11
4 5 6 5 5 5 5 4 4 4 3 4 4 4 4 5 5 5 5 6 7 7 8 8 8 8 8 8 7 7 7 6 4 4 5 5 5 9 9 9 10 10 10
4 5 5 5 5 4 4 4 4 4 4 4 4 4 4 5 5 5 6 6 7 7 8 7 8 8 7 7 7 6 6 6 5 5 5 4 7 8 8 8 8 9 9
3 4 4 3 3 4 4 4 4 4 4 4 4 5 5 5 5 5 5 6 7 7 7 7 7 7 7 6 6 6 5 5 4 3 5 4 6 7 8 8 8 8 8
3 3 2 2 2 3 3 4 4 4 4 4 4 4 4 4 5 5 4 5 6 7 7 7 7 6 6 6 5 4 4 4 4 4 3 4 7 7 8 8 8 8 8
2 2 1 1 1 2 3 4 4 3 4 4 3 3 3 2 3 3 5 5 5 6 6 6 6 6 5 3 3 4 3 2 3 3 3 5 7 7 7 7 7 7 7
1 1 1 1 1 1 2 3 3 3 3 2 2 2 1 1 2 4 5 6 5 5 5 5 4 3 2 1 1 2 1 3 3 3 3 6 6 6 6 6 6 7 7
1 1 1 0 0 1 1 2 2 2 2 2 2 2 2 2 2 3 2 3 3 3 2 2 2 1 1 1 1 2 2 2 2 2 3 6 5 5 6 6 6 6 6
1 1 1 1 1 1 1 1 2 2 2 2 2 2 2 2 2 2 2 2 2 1 1 1 1 2 2 2 2 2 2 2 2 2 3 5 5 5 5 5 6 6 6
1 1 0 1 1 1 1 0 1 2 2 2 2 2 1 2 2 2 2 2 2 1 1 1 1 1 2 2 2 3 3 3 2 2 2 4 5 5 5 4 5 5 5
1 1 0 0 0 1 1 1 1 1 2 2 2 2 1 1 2 2 2 2 1 1 1 1 2 2 2 2 3 3 2 2 2 2 2 3 5 5 4 4 4 4 5
1 1 0 0 0 0 1 1 1 1 2 2 2 2 2 1 2 2 2 2 1 2 2 2 2 2 2 2 3 2 2 2 2 2 2 2 2 4 4 4 4 4 4
1 1 0 0 0 0 0 1 1 1 2 2 2 2 2 1 2 2 2 2 1 2 2 2 2 2 2 2 2 2 2 1 2 2 2 2 2 2 3 4 4 4 4
1 1 1 1 1 0 0 1 1 1 2 1 2 2 1 2 2 2 2 2 2 2 2 2 2 2 2 2 2 2 1 1 1 2 2 2 2 2 2 3 4 4 4
2 1 1 1 1 0 0 1 1 2 2 1 2 2 2 2 2 2 2 2 2 2 2 2 2 2 2 2 2 2 1 1 1 1 1 2 1 2 2 2 2 3 4
2 2 2 2 1 1 1 1 1 1 1 1 1 2 2 2 2 2 2 2 1 2 1 2 2 3 2 1 2 1 1 1 1 1 1 1 1 1 2 2 2 1 2
1 1 2 2 1 0 1 1 1 1 1 1 2 2 2 2 3 2 2 1 2 2 2 2 2 2 1 1 1 1 0 1 0 0 0 0 0 1 1 1 1 1 1
2 2 2 2 1 1 0 1 1 1 1 1 1 2 2 2 3 2 2 2 2 2 2 2 2 3 2 1 1 2 2 2 0 1 1 1 1 0 0 0 1 1 1
1 2 2 2 3 1 1 1 1 1 2 1 1 2 2 2 2 2 2 2 2 1 2 2 1 1 2 2 1 0 1 2 2 0 1 0 1 0 0 0 0 0 0
1 1 2 2 2 2 2 1 1 1 2 2 2 3 2 2 2 2 2 2 2 1 2 2 1 1 1 2 1 1 0 0 1 1 2 1 1 1 1 1 0 0 0
2 2 2 2 2 2 2 2 2 2 2 2 2 2 2 1 1 2 1 1 1 1 1 2 2 2 1 1 1 1 1 1 2 2 2 2 2 2 1 1 1 1 1
Wind_Direction
96 108 117 110 110 106 107 102 101 100 98 94 92 91 87 82 79 77 78 81 85 86 87 86 84 80 78 78 75 71 70 70 69 69 70 70 69 69 67 62 64 62 64
106 114 120 110 109 106 108 106 104 105 103 98 95 93 92 88 85 82 79 81 87 89 90 89 86 83 82 81 77 72 70 69 66 65 69 68 69 70 67 64 66 67 66
103 116 120 109 112 109 109 109 108 108 107 104 101 95 94 92 92 88 84 81 87 92 92 92 91 88 85 81 79 75 70 64 59 59 64 69 71 71 69 66 64 64 64
109 120 121 111 115 113 110 109 110 109 109 108 106 101 97 96 97 93 89 90 91 93 94 92 91 89 87 84 82 77 67 53 48 51 64 67 70 70 69 67 63 62 62
103 109 115 112 116 117 115 111 112 113 114 116 114 110 105 103 101 98 93 91 93 96 94 92 91 89 88 86 82 72 57 42 45 53 62 64 68 72 71 68 63 59 56
95 100 115 115 120 120 118 120 120 124 124 124 119 118 114 109 100 97 96 92 93 94 96 94 94 92 90 86 81 69 52 41 41 57 61 63 68 75 73 71 66 60 57
100 101 119 114 115 120 119 119 122 127 125 124 120 116 115 109 103 99 98 94 96 96 96 96 93 93 90 84 78 65 51 42 55 57 60 60 68 75 74 71 67 62 58
102 104 120 112 114 117 116 116 111 109 111 114 115 106 107 107 100 97 97 98 98 101 97 96 94 91 92 84 74 61 47 50 51 60 64 65 72 74 73 70 66 63 60
91 101 117 128 128 122 113 105 99 101 101 98 99 96 95 96 99 94 95 98 98 101 97 93 95 93 91 87 74 58 45 43 47 57 62 64 68 71 74 72 68 65 62
88 91 101 129 141 145 137 116 110 107 104 97 92 88 88 92 96 96 96 100 103 106 103 98 98 98 95 90 79 60 46 36 53 58 57 62 66 72 76 73 69 66 63
85 87 100 120 145 155 153 146 140 127 116 111 103 101 106 106 109 104 98 102 106 106 106 105 101 101 96 91 84 72 54 59 56 59 55 65 69 77 80 73 68 64 61
129 91 88 120 146 149 154 149 156 148 138 138 127 132 139 110 93 99 98 99 100 99 98 101 102 102 102 107 97 80 73 66 60 59 51 65 70 78 80 75 70 67 63
195 162 137 142 123 125 120 142 144 138 143 149 143 152 138 115 105 102 108 111 108 106 99 102 104 93 89 79 88 93 76 70 71 64 54 64 69 76 78 77 75 72 67
230 182 168 163 149 124 110 145 143 137 144 148 152 156 136 121 121 117 116 121 117 111 109 101 96 90 87 80 83 83 73 69 74 70 58 64 66 73 72 78 76 72 66
249 209 163 165 159 144 124 139 148 150 147 151 139 139 133 131 131 127 123 112 111 106 109 100 88 83 85 77 74 82 83 73 70 77 69 65 65 64 64 71 69 67 63
312 273 281 10 109 145 152 156 166 151 148 145 137 135 135 139 137 137 128 114 107 107 102 100 98 93 92 83 70 69 83 84 74 78 86 72 64 60 53 62 67 64 60
331 338 159 186 117 148 167 171 164 167 143 135 131 131 121 119 124 123 122 120 121 116 110 100 89 87 91 88 81 72 71 77 79 76 80 81 74 55 47 56 59 56 56
11 12 65 58 78 166 178 169 170 155 135 131 123 125 128 138 124 122 123 127 124 119 119 117 108 99 94 92 86 75 74 77 77 79 78 75 74 66 48 48 49 45 45
61 37 118 100 73 347 255 176 161 131 128 130 119 117 129 137 125 120 125 130 130 123 121 119 109 113 106 96 92 79 71 62 76 76 83 77 62 69 72 51 42 39 35
40 34 56 85 83 54 109 122 122 107 108 116 120 122 123 127 121 117 121 128 128 124 121 118 118 111 118 114 94 76 76 91 90 89 95 85 69 63 64 56 47 32 31
39 33 45 46 48 90 124 136 142 145 134 132 136 125 125 125 120 122 123 130 124 126 131 135 133 126 122 119 103 81 45 87 119 119 97 99 96 72 64 56 53 49 21
28 8 36 41 12 143 165 155 168 162 149 141 119 96 116 127 125 128 131 137 137 138 140 140 139 142 144 140 139 135 162 332 355 30 72 95 99 80 69 51 47 48 33
21 2 359 8 10 18 27 119 119 119 112 108 108 103 94 118 119 123 138 138 144 151 162 157 151 154 168 184 155 155 166 206 226 243 207 179 136 94 103 59 36 28 32
2 357 7 17 20 35 50 88 132 153 147 130 114 107 93 90 113 128 135 140 145 147 151 165 156 163 163 182 215 277 182 154 157 233 286 248 199 217 260 338 13 5 41
30 16 11 24 26 20 33 50 122 103 93 96 98 101 94 85 87 96 111 126 141 153 163 163 163 156 165 183 189 189 211 236 194 195 244 247 272 250 217 214 239 243 241
32 22 17 19 19 13 21 44 63 98 108 108 104 108 97 91 85 70 84 115 128 144 170 178 177 175 179 177 188 182 182 187 201 209 234 242 249 246 227 215 226 229 231